Regional Weather Roundup
Issued by NWS Charleston, WV

Home | Current Version | Previous Version | Graphics & Text | Print | Product List | Glossary On
Versions: 1 2 3 4 5 6 7 8 9 10 11 12 13 14 15 16 17 18 19 20 21 22 23 24 25 26 27 28 29 30 31 32 33 34 35 36 37 38 39 40 41 42 43 44 45 46 47 48 49 50
000
ASUS41 KRLX 041310
RWRRLX
West Virginia Regional Weather Roundup
National Weather Service Charleston WV
900 AM EDT FRI SEP 04 2015

Note: "fair" indicates few or no clouds below 12,000 feet with no
significant weather and/or obstructions to visibility.

WVZ003-041400-
Northern Panhandle of West Virginia

CITY           SKY/WX    TMP DP  RH WIND       PRES   REMARKS
WHEELING       PTSUNNY   71  65  81 CALM      30.10R
$$

WVZ009-041400-
Northwest West Virginia

CITY           SKY/WX    TMP DP  RH WIND       PRES   REMARKS
PARKERSBURG    MOSUNNY   70  66  87 SE5       30.11R
$$

WVZ006-041400-
Western West Virginia

CITY           SKY/WX    TMP DP  RH WIND       PRES   REMARKS
HUNTINGTON     MOSUNNY   69  67  93 E7        30.07R FOG
$$

WVZ015-041400-
West Central West Virginia

CITY           SKY/WX    TMP DP  RH WIND       PRES   REMARKS
CHARLESTON     FOG       68  67  96 NE3       30.09R VSB 1/2
$$

WVZ022-031-041400-
North Central West Virginia

CITY           SKY/WX    TMP DP  RH WIND       PRES   REMARKS
CLARKSBURG     SUNNY     68  65  90 CALM      30.10S FOG
MORGANTOWN     MOSUNNY   70  64  81 CALM      30.11S HAZE
$$

WVZ025-035-042-045-041400-
Southern West Virginia

CITY           SKY/WX    TMP DP  RH WIND       PRES   REMARKS
BECKLEY        SUNNY     72  66  81 CALM      30.15R HAZE
LOGAN          FOG       68  68 100 CALM      30.11R VSB<1/4
BLUEFIELD      SUNNY     72  63  73 W3        30.17R
LEWISBURG      FOG       64  62  94 CALM      30.14S VSB<1/4
$$

WVZ047-041400-
Northern Mountains of West Virginia

CITY           SKY/WX    TMP DP  RH WIND       PRES   REMARKS
ELKINS         FOG       65  63  93 CALM      30.14S VSB 1
$$

WVZ052-041400-
Eastern Panhandle of West Virginia

CITY           SKY/WX    TMP DP  RH WIND       PRES   REMARKS
MARTINSBURG    SUNNY     72  68  87 CALM      30.05R FOG
PETERSBURG     FOG       66  66 100 CALM      30.09S VSB 1/2
$$


USA.gov is the U.S. government's official web portal to all federal, state and local government web resources and services.